Tracking 24122 objects as of 9-Dec-2021
HD Live streaming from Space Station
objects crossing your sky now

OPS 4682 DEB

Track OPS 4682 DEB now!
10-day predictions


NORAD ID: 38377
Int'l Code: 1965-027CE
Perigee: 1,257.6 km
Apogee: 1,313.8 km
Inclination: 90.3 °
Period: 111.1 minutes
Semi major axis: 7656 km
RCS: 0.007 m2 (small)
Launch date: April 3, 1965
Source: United States (US)
Launch site: AIR FORCE WESTERN TEST RANGE (AFWTR)

Note: This is SATELLITE DEBRIS
aabbcc
Your satellite tracking list
Your tracking list is empty




NASA's NSSDC Master Catalog

Two Line Element Set (TLE):
1 38377U 65027CE  21341.73383659  .00000347  00000-0  11952-2 0  9997
2 38377  90.2691 333.0526 0036681 132.3839 228.0395 12.95808515390030
Source of the keplerian elements: AFSPC